,,Stat6,,Stat2,,Stat8,,Stat9,,Stat10,,Wind1,,Wind1,
time,status,PA1M_AVG,status,PR1M_SUM,status,RH1M_AVG,status,SR1M_AVG,status,TA1M_AVG,status,W1dAve1m,status,W1sAve1m,
2008-06-15, 00:00:00,VALID,917.459,VALID,0,VALID,100,VALID,0,VALID,19.0729,VALID,168,VALID,1.32831,
2008-06-15, 00:01:00,VALID,917.46,VALID,0,VALID,100,VALID,0.0339617,VALID,19.0794,VALID,162,VALID,1.04996,
2008-06-15, 00:02:00,VALID,917.467,VALID,0,VALID,100,VALID,-0.0169808,VALID,19.0891,VALID,169,VALID,1.57467,
2008-06-15, 00:03:00,VALID,917.447,VALID,0,VALID,100,VALID,0,VALID,19.1253,VALID,162,VALID,1.81212,
2008-06-15, 00:04:00,VALID,917.431,VALID,0,VALID,100,VALID,-0.0169808,VALID,19.1448,VALID,163,VALID,0.875332,
2008-06-15, 00:05:00,VALID,917.406,VALID,0,VALID,100,VALID,0,VALID,19.171,VALID,156,VALID,1.2998,
2008-06-15, 00:06:00,VALID,917.401,VALID,0,VALID,100,VALID,0.0169808,VALID,19.164,VALID,165,VALID,1.02943,
2008-06-15, 00:07:00,VALID,917.396,VALID,0,VALID,100,VALID,0.0339617,VALID,19.1702,VALID,159,VALID,1.34319,
2008-06-15, 00:08:00,VALID,917.397,VALID,0,VALID,100,VALID,0.0169808,VALID,19.1665,VALID,160,VALID,0.912791,
2008-06-15, 00:09:00,VALID,917.401,VALID,0,VALID,100,VALID,0,VALID,19.177,VALID,177,VALID,0.141146,
2008-06-15, 00:10:00,VALID,917.413,VALID,0,VALID,100,VALID,0.0169808,VALID,19.1737,VALID,169,VALID,0.0670421,
2008-06-15, 00:11:00,VALID,917.42,VALID,0,VALID,100,VALID,-0.0169808,VALID,19.1865,VALID,158,VALID,0.940799,
2008-06-15, 00:12:00,VALID,917.404,VALID,0,VALID,100,VALID,0.0169808,VALID,19.2029,VALID,167,VALID,1.07576,
2008-06-15, 00:13:00,VALID,917.4,VALID,0,VALID,100,VALID,0.0169808,VALID,19.2059,VALID,169,VALID,0.951766,
2008-06-15, 00:14:00,VALID,917.383,VALID,0,VALID,100,VALID,0.0169808,VALID,19.1992,VALID,167,VALID,0.755273,
2008-06-15, 00:15:00,VALID,917.381,VALID,0,VALID,100,VALID,0,VALID,19.2029,VALID,164,VALID,1.44017,
2008-06-15, 00:16:00,VALID,917.372,VALID,0,VALID,100,VALID,0.0169808,VALID,19.1959,VALID,175,VALID,0.942336,
2008-06-15, 00:17:00,VALID,917.384,VALID,0,VALID,100,VALID,0.0509425,VALID,19.1862,VALID,163,VALID,0.939135,
2008-06-15, 00:18:00,VALID,917.369,VALID,0,VALID,100,VALID,0,VALID,19.177,VALID,171,VALID,0.764323,
2008-06-15, 00:19:00,VALID,917.351,VALID,0,VALID,100,VALID,0,VALID,19.1508,VALID,164,VALID,0.997222,
2008-06-15, 00:20:00,VALID,917.333,VALID,0,VALID,100,VALID,0.0339617,VALID,19.1443,VALID,161,VALID,0.88316,
2008-06-15, 00:21:00,VALID,917.302,VALID,0,VALID,100,VALID,0.0339617,VALID,19.138,VALID,169,VALID,0.810404,
2008-06-15, 00:22:00,VALID,917.279,VALID,0,VALID,100,VALID,0.0509425,VALID,19.138,VALID,177,VALID,0.836124,
2008-06-15, 00:23:00,VALID,917.256,VALID,0,VALID,100,VALID,0.0339617,VALID,19.1445,VALID,182,VALID,0.165153,
2008-06-15, 00:24:00,VALID,917.238,VALID,0,VALID,100,VALID,0,VALID,19.1376,VALID,173,VALID,0,
2008-06-15, 00:25:00,VALID,917.249,VALID,0,VALID,100,VALID,0,VALID,19.1316,VALID,169,VALID,0.0902158,
2008-06-15, 00:26:00,VALID,917.234,VALID,0,VALID,100,VALID,0.0169808,VALID,19.1084,VALID,167,VALID,0.170785,
2008-06-15, 00:27:00,VALID,917.234,VALID,0,VALID,100,VALID,-0.0169808,VALID,19.0924,VALID,170,VALID,0.497523,
2008-06-15, 00:28:00,VALID,917.224,VALID,0,VALID,100,VALID,0,VALID,19.0827,VALID,167,VALID,0,
2008-06-15, 00:29:00,VALID,917.214,VALID,0,VALID,100,VALID,0,VALID,19.053,VALID,158,VALID,0,
2008-06-15, 00:30:00,VALID,917.215,VALID,0,VALID,100,VALID,0.0169808,VALID,19.0435,VALID,158,VALID,0.413154,
2008-06-15, 00:31:00,VALID,917.202,VALID,0,VALID,100,VALID,0,VALID,19.047,VALID,153,VALID,0.467578,
2008-06-15, 00:32:00,VALID,917.186,VALID,0,VALID,100,VALID,0.0339617,VALID,19.0467,VALID,165,VALID,0.295351,
2008-06-15, 00:33:00,VALID,917.175,VALID,0,VALID,100,VALID,0.0169808,VALID,19.0505,VALID,181,VALID,0.362038,
2008-06-15, 00:34:00,VALID,917.147,VALID,0,VALID,100,VALID,0,VALID,19.034,VALID,169,VALID,0.217478,
2008-06-15, 00:35:00,VALID,917.124,VALID,0,VALID,100,VALID,-0.0339617,VALID,19.041,VALID,173,VALID,0,
2008-06-15, 00:36:00,VALID,917.102,VALID,0,VALID,100,VALID,0,VALID,19.031,VALID,173,VALID,0.0457589,
2008-06-15, 00:37:00,VALID,917.064,VALID,0,VALID,100,VALID,0,VALID,19.0243,VALID,167,VALID,0.355841,
2008-06-15, 00:38:00,VALID,917.052,VALID,0,VALID,100,VALID,-0.0169808,VALID,19.035,VALID,150,VALID,0.131214,
2008-06-15, 00:39:00,VALID,917.044,VALID,0,VALID,100,VALID,-0.0849042,VALID,19.0122,VALID,169,VALID,0.481898,
2008-06-15, 00:40:00,VALID,917.043,VALID,0,VALID,100,VALID,-0.0509425,VALID,18.9863,VALID,161,VALID,0.0745739,
2008-06-15, 00:41:00,VALID,917.048,VALID,0,VALID,100,VALID,-0.0339617,VALID,18.9761,VALID,162,VALID,0.0851362,
2008-06-15, 00:42:00,VALID,917.039,VALID,0,VALID,100,VALID,-0.0679233,VALID,19.0023,VALID,168,VALID,0.227778,
2008-06-15, 00:43:00,VALID,917.023,VALID,0,VALID,100,VALID,-0.0509425,VALID,19.0023,VALID,173,VALID,0.522852,
2008-06-15, 00:44:00,VALID,916.982,VALID,0,VALID,100,VALID,-0.0849042,VALID,19.0118,VALID,172,VALID,0.212536,
2008-06-15, 00:45:00,VALID,916.959,VALID,0,VALID,100,VALID,-0.0509425,VALID,19.0058,VALID,165,VALID,0,
2008-06-15, 00:46:00,VALID,916.936,VALID,0,VALID,100,VALID,-0.0339617,VALID,18.999,VALID,155,VALID,0.105646,
2008-06-15, 00:47:00,VALID,916.938,VALID,0,VALID,100,VALID,-0.0509425,VALID,19.0055,VALID,161,VALID,0.0012718,
2008-06-15, 00:48:00,VALID,916.929,VALID,0,VALID,100,VALID,-0.0509425,VALID,19.0122,VALID,168,VALID,0.103277,
2008-06-15, 00:49:00,VALID,916.916,VALID,0,VALID,100,VALID,-0.0509425,VALID,19.0217,VALID,142,VALID,0.111506,
2008-06-15, 00:50:00,VALID,916.908,VALID,0,VALID,100,VALID,-0.0849042,VALID,19.0018,VALID,156,VALID,0.439986,
2008-06-15, 00:51:00,VALID,916.894,VALID,0,VALID,100,VALID,-0.0509425,VALID,19.0055,VALID,164,VALID,0.612537,
2008-06-15, 00:52:00,VALID,916.877,VALID,0,VALID,100,VALID,-0.0339617,VALID,19.0088,VALID,170,VALID,0,
2008-06-15, 00:53:00,VALID,916.864,VALID,0,VALID,100,VALID,-0.0849042,VALID,18.9955,VALID,143,VALID,0.388808,
2008-06-15, 00:54:00,VALID,916.845,VALID,0,VALID,100,VALID,-0.0849042,VALID,18.9828,VALID,158,VALID,0.692383,
2008-06-15, 00:55:00,VALID,916.847,VALID,0,VALID,100,VALID,-0.0679233,VALID,18.9601,VALID,155,VALID,0.945822,
2008-06-15, 00:56:00,VALID,916.838,VALID,0,VALID,100,VALID,-0.0509425,VALID,18.9531,VALID,158,VALID,1.08125,
2008-06-15, 00:57:00,VALID,916.849,VALID,0,VALID,100,VALID,-0.0679233,VALID,18.9506,VALID,143,VALID,0,
2008-06-15, 00:58:00,VALID,916.856,VALID,0,VALID,100,VALID,-0.0679233,VALID,18.9406,VALID,145,VALID,0.00114329,
2008-06-15, 00:59:00,VALID,916.879,VALID,0,VALID,100,VALID,-0.0849042,VALID,18.9511,VALID,159,VALID,0,
2008-06-15, 01:00:00,VALID,916.883,VALID,0,VALID,100,VALID,-0.101885,VALID,18.9546,VALID,152,VALID,0.0343387,
2008-06-15, 01:01:00,VALID,916.918,VALID,0,VALID,100,VALID,-0.101885,VALID,18.9506,VALID,153,VALID,0.0291193,
2008-06-15, 01:02:00,VALID,916.927,VALID,0,VALID,100,VALID,-0.118866,VALID,18.9481,VALID,141,VALID,0.973011,
2008-06-15, 01:03:00,VALID,916.928,VALID,0,VALID,100,VALID,-0.118866,VALID,18.9189,VALID,168,VALID,0.281822,
2008-06-15, 01:04:00,VALID,916.933,VALID,0,VALID,100,VALID,-0.0849042,VALID,18.9022,VALID,156,VALID,0.533482,
2008-06-15, 01:05:00,VALID,916.919,VALID,0,VALID,100,VALID,-0.118866,VALID,18.8927,VALID,147,VALID,0.652716,
2008-06-15, 01:06:00,VALID,916.891,VALID,0,VALID,100,VALID,-0.101885,VALID,18.8857,VALID,139,VALID,0.613009,
2008-06-15, 01:07:00,VALID,916.879,VALID,0,VALID,100,VALID,-0.0679233,VALID,18.8593,VALID,152,VALID,0.699751,
2008-06-15, 01:08:00,VALID,916.866,VALID,0,VALID,100,VALID,-0.0509425,VALID,18.8593,VALID,159,VALID,0.786859,
2008-06-15, 01:09:00,VALID,916.864,VALID,0,VALID,100,VALID,0.0509425,VALID,18.8459,VALID,163,VALID,0.567951,
2008-06-15, 01:10:00,VALID,916.858,VALID,0,VALID,100,VALID,0.0169808,VALID,18.806,VALID,150,VALID,0.0407774,
2008-06-15, 01:11:00,VALID,916.87,VALID,0,VALID,100,VALID,0,VALID,18.7902,VALID,142,VALID,0,
2008-06-15, 01:12:00,VALID,916.877,VALID,0,VALID,100,VALID,0.0169808,VALID,18.7837,VALID,143,VALID,0,
2008-06-15, 01:13:00,VALID,916.873,VALID,0,VALID,100,VALID,0,VALID,18.7518,VALID,143,VALID,0.0855564,
2008-06-15, 01:14:01,VALID,916.871,VALID,0,VALID,100,VALID,-0.0169808,VALID,18.7288,VALID,143,VALID,0.0120739,
2008-06-15, 01:15:01,VALID,916.87,VALID,0,VALID,100,VALID,0,VALID,18.7126,VALID,144,VALID,0.0350654,
2008-06-15, 01:16:00,VALID,916.849,VALID,0,VALID,100,VALID,0.0169808,VALID,18.6864,VALID,142,VALID,0.046875,
2008-06-15, 01:17:00,VALID,916.833,VALID,0,VALID,100,VALID,-0.0849042,VALID,18.6841,VALID,138,VALID,0,
2008-06-15, 01:18:00,VALID,916.83,VALID,0,VALID,100,VALID,-0.0509425,VALID,18.6682,VALID,138,VALID,0,
2008-06-15, 01:19:01,VALID,916.8,VALID,0,VALID,100,VALID,-0.0679233,VALID,18.6554,VALID,135,VALID,0,
2008-06-15, 01:20:01,VALID,916.79,VALID,0,VALID,100,VALID,-0.0679233,VALID,18.6197,VALID,130,VALID,0,
2008-06-15, 01:21:00,VALID,916.77,VALID,0,VALID,100,VALID,-0.101885,VALID,18.6,VALID,130,VALID,0,
2008-06-15, 01:22:00,VALID,916.758,VALID,0,VALID,100,VALID,-0.0849042,VALID,18.607,VALID,124,VALID,0,
2008-06-15, 01:23:00,VALID,916.753,VALID,0,VALID,100,VALID,-0.0849042,VALID,18.5903,VALID,110,VALID,0.156808,
2008-06-15, 01:24:00,VALID,916.748,VALID,0,VALID,100,VALID,-0.0679233,VALID,18.5808,VALID,107,VALID,0.848028,
2008-06-15, 01:25:00,VALID,916.73,VALID,0,VALID,100,VALID,-0.101885,VALID,18.5451,VALID,104,VALID,0.78776,
2008-06-15, 01:26:00,VALID,916.746,VALID,0,VALID,100,VALID,-0.0679233,VALID,18.5322,VALID,106,VALID,0.733285,
2008-06-15, 01:27:01,VALID,916.723,VALID,0,VALID,100,VALID,-0.0849042,VALID,18.5261,VALID,120,VALID,0.642428,
2008-06-15, 01:28:00,VALID,916.707,VALID,0,VALID,100,VALID,-0.0679233,VALID,18.506,VALID,126,VALID,0.856497,
2008-06-15, 01:29:01,VALID,916.693,VALID,0,VALID,100,VALID,-0.0679233,VALID,18.4965,VALID,132,VALID,0.845274,
2008-06-15, 01:30:00,VALID,916.667,VALID,0,VALID,100,VALID,-0.0509425,VALID,18.4872,VALID,133,VALID,0.797461,
2008-06-15, 01:31:00,VALID,916.643,VALID,0,VALID,100,VALID,-0.101885,VALID,18.4641,VALID,133,VALID,0.844308,
2008-06-15, 01:32:00,VALID,916.624,VALID,0,VALID,100,VALID,-0.101885,VALID,18.4376,VALID,133,VALID,0.794212,
2008-06-15, 01:33:00,VALID,916.618,VALID,0,VALID,100,VALID,-0.0679233,VALID,18.4353,VALID,130,VALID,0.818537,
2008-06-15, 01:34:01,VALID,916.625,VALID,0,VALID,100,VALID,-0.0849042,VALID,18.4316,VALID,129,VALID,0.037234,
2008-06-15, 01:35:00,VALID,916.63,VALID,0,VALID,100,VALID,-0.0849042,VALID,18.4251,VALID,127,VALID,0,
2008-06-15, 01:36:01,VALID,916.646,VALID,0,VALID,100,VALID,-0.101885,VALID,18.4381,VALID,124,VALID,0.703125,
2008-06-15, 01:37:00,VALID,916.649,VALID,0,VALID,100,VALID,-0.0679233,VALID,18.4411,VALID,119,VALID,0.635901,
2008-06-15, 01:38:01,VALID,916.651,VALID,0,VALID,100,VALID,-0.0679233,VALID,18.4191,VALID,106,VALID,0.76598,
2008-06-15, 01:39:01,VALID,916.662,VALID,0,VALID,100,VALID,-0.0849042,VALID,18.4159,VALID,109,VALID,0.80191,
2008-06-15, 01:40:00,VALID,916.659,VALID,0,VALID,100,VALID,-0.0679233,VALID,18.3987,VALID,107,VALID,0.758594,
2008-06-15, 01:41:01,VALID,916.65,VALID,0,VALID,100,VALID,-0.0679233,VALID,18.38,VALID,107,VALID,0.659784,
2008-06-15, 01:42:00,VALID,916.632,VALID,0,VALID,100,VALID,-0.0679233,VALID,18.3535,VALID,110,VALID,0.772321,
2008-06-15, 01:43:01,VALID,916.616,VALID,0,VALID,100,VALID,-0.0679233,VALID,18.3566,VALID,119,VALID,0.78869,
2008-06-15, 01:44:00,VALID,916.597,VALID,0,VALID,100,VALID,-0.101885,VALID,18.3568,VALID,125,VALID,0.739062,
2008-06-15, 01:45:00,VALID,916.584,VALID,0,VALID,100,VALID,-0.0679233,VALID,18.3378,VALID,118,VALID,0.90987,
2008-06-15, 01:46:01,VALID,916.562,VALID,0,VALID,100,VALID,-0.101885,VALID,18.3218,VALID,107,VALID,0.860937,
2008-06-15, 01:47:00,VALID,916.555,VALID,0,VALID,100,VALID,-0.0849042,VALID,18.2627,VALID,106,VALID,0.645167,
2008-06-15, 01:48:00,VALID,916.541,VALID,0,VALID,100,VALID,-0.0849042,VALID,18.2498,VALID,112,VALID,0.971294,
2008-06-15, 01:49:00,VALID,916.534,VALID,0,VALID,100,VALID,-0.0679233,VALID,18.2298,VALID,120,VALID,0.767223,
2008-06-15, 01:50:00,VALID,916.508,VALID,0,VALID,100,VALID,-0.0849042,VALID,18.2433,VALID,115,VALID,0.906783,
2008-06-15, 01:51:00,VALID,916.498,VALID,0,VALID,100,VALID,-0.0509425,VALID,18.2625,VALID,115,VALID,0.953869,
2008-06-15, 01:52:00,VALID,916.498,VALID,0,VALID,100,VALID,-0.101885,VALID,18.2796,VALID,127,VALID,0.923473,
2008-06-15, 01:53:00,VALID,916.482,VALID,0,VALID,100,VALID,-0.0339617,VALID,18.282,VALID,130,VALID,1.01544,
2008-06-15, 01:54:00,VALID,916.465,VALID,0,VALID,100,VALID,0.0169808,VALID,18.2613,VALID,135,VALID,0.705915,
2008-06-15, 01:55:00,VALID,916.454,VALID,0,VALID,100,VALID,0,VALID,18.2285,VALID,132,VALID,0.819957,
2008-06-15, 01:56:01,VALID,916.439,VALID,0,VALID,100,VALID,0.0339617,VALID,18.2257,VALID,144,VALID,0.542411,
2008-06-15, 01:57:00,VALID,916.42,VALID,0,VALID,100,VALID,0.0169808,VALID,18.2192,VALID,144,VALID,0.571911,
2008-06-15, 01:58:00,VALID,916.398,VALID,0,VALID,100,VALID,0.0509425,VALID,18.2157,VALID,148,VALID,0.834722,
2008-06-15, 01:59:01,VALID,916.396,VALID,0,VALID,100,VALID,0.0339617,VALID,18.2162,VALID,144,VALID,0.687099,
2008-06-15, 02:00:01,VALID,916.397,VALID,0,VALID,100,VALID,0.0509425,VALID,18.2259,VALID,144,VALID,0.753634,
2008-06-15, 02:01:01,VALID,916.395,VALID,0,VALID,100,VALID,0.0339617,VALID,18.2227,VALID,144,VALID,0.705256,
2008-06-15, 02:02:01,VALID,916.42,VALID,0,VALID,100,VALID,0.0509425,VALID,18.19,VALID,144,VALID,0.721418,
2008-06-15, 02:03:01,VALID,916.436,VALID,0,VALID,100,VALID,0,VALID,18.1965,VALID,142,VALID,0.845203,
2008-06-15, 02:04:00,VALID,916.442,VALID,0,VALID,100,VALID,0.0509425,VALID,18.203,VALID,139,VALID,0.847284,
2008-06-15, 02:05:01,VALID,916.455,VALID,0,VALID,100,VALID,0,VALID,18.18,VALID,136,VALID,0.721289,
2008-06-15, 02:06:00,VALID,916.451,VALID,0,VALID,100,VALID,0,VALID,18.1805,VALID,136,VALID,0.709635,
2008-06-15, 02:07:00,VALID,916.432,VALID,0,VALID,100,VALID,0.0169808,VALID,18.1701,VALID,130,VALID,0.798785,
2008-06-15, 02:08:01,VALID,916.429,VALID,0,VALID,100,VALID,0.0339617,VALID,18.1703,VALID,131,VALID,0.996652,
2008-06-15, 02:09:01,VALID,916.416,VALID,0,VALID,100,VALID,0.101885,VALID,18.1865,VALID,132,VALID,0.89082,
2008-06-15, 02:10:01,VALID,916.4,VALID,0,VALID,100,VALID,0.0679233,VALID,18.1796,VALID,126,VALID,1.20064,
2008-06-15, 02:11:01,VALID,916.388,VALID,0,VALID,100,VALID,0.0339617,VALID,18.1895,VALID,122,VALID,1.27053,
2008-06-15, 02:12:01,VALID,916.372,VALID,0,VALID,100,VALID,0.0339617,VALID,18.1831,VALID,126,VALID,1.17597,
2008-06-15, 02:13:01,VALID,916.338,VALID,0,VALID,100,VALID,0.0679233,VALID,18.1865,VALID,121,VALID,1.08125,
2008-06-15, 02:14:00,VALID,916.33,VALID,0,VALID,100,VALID,0.0679233,VALID,18.2025,VALID,128,VALID,1.19773,
2008-06-15, 02:15:00,VALID,916.313,VALID,0,VALID,100,VALID,0.0679233,VALID,18.2025,VALID,126,VALID,1.21875,
2008-06-15, 02:16:00,VALID,916.306,VALID,0,VALID,100,VALID,0.101885,VALID,18.2122,VALID,126,VALID,1.20274,
2008-06-15, 02:17:00,VALID,916.29,VALID,0,VALID,100,VALID,0.101885,VALID,18.2187,VALID,135,VALID,1.37066,
2008-06-15, 02:18:00,VALID,916.281,VALID,0,VALID,100,VALID,0.101885,VALID,18.209,VALID,130,VALID,1.54616,
2008-06-15, 02:19:00,VALID,916.287,VALID,0,VALID,100,VALID,0.0509425,VALID,18.2192,VALID,131,VALID,1.4365,
2008-06-15, 02:20:00,VALID,916.295,VALID,0,VALID,100,VALID,0.0169808,VALID,18.2419,VALID,139,VALID,1.45666,
2008-06-15, 02:21:00,VALID,916.285,VALID,0,VALID,100,VALID,0.0339617,VALID,18.2706,VALID,137,VALID,1.43255,
2008-06-15, 02:22:00,VALID,916.294,VALID,0,VALID,100,VALID,0.0509425,VALID,18.323,VALID,125,VALID,1.28525,
2008-06-15, 02:23:00,VALID,916.286,VALID,0,VALID,100,VALID,0.0169808,VALID,18.2972,VALID,107,VALID,0.840625,
2008-06-15, 02:24:00,VALID,916.286,VALID,0,VALID,100,VALID,-0.0339617,VALID,18.2688,VALID,105,VALID,0.714658,
2008-06-15, 02:25:00,VALID,916.284,VALID,0,VALID,100,VALID,-0.0169808,VALID,18.2528,VALID,120,VALID,0.764915,
2008-06-15, 02:26:00,VALID,916.276,VALID,0,VALID,100,VALID,0,VALID,18.2396,VALID,115,VALID,0.770461,
2008-06-15, 02:27:00,VALID,916.272,VALID,0,VALID,100,VALID,-0.0509425,VALID,18.2234,VALID,111,VALID,0.82984,
2008-06-15, 02:28:00,VALID,916.277,VALID,0,VALID,100,VALID,-0.0169808,VALID,18.2169,VALID,110,VALID,0.659801,
2008-06-15, 02:29:00,VALID,916.288,VALID,0,VALID,100,VALID,-0.0339617,VALID,18.2101,VALID,113,VALID,0.812119,
2008-06-15, 02:30:00,VALID,916.293,VALID,0,VALID,100,VALID,-0.0339617,VALID,18.2039,VALID,112,VALID,0.654726,
2008-06-15, 02:31:00,VALID,916.303,VALID,0,VALID,100,VALID,-0.0169808,VALID,18.2039,VALID,111,VALID,0.688058,
2008-06-15, 02:32:00,VALID,916.3,VALID,0,VALID,100,VALID,0,VALID,18.1942,VALID,114,VALID,0.517113,
2008-06-15, 02:33:00,VALID,916.301,VALID,0,VALID,100,VALID,-0.0169808,VALID,18.2006,VALID,115,VALID,0.699805,
2008-06-15, 02:34:00,VALID,916.296,VALID,0,VALID,100,VALID,-0.0509425,VALID,18.2134,VALID,123,VALID,1.05287,
2008-06-15, 02:35:00,VALID,916.283,VALID,0,VALID,100,VALID,-0.0679233,VALID,18.2236,VALID,120,VALID,0.585366,
2008-06-15, 02:36:00,VALID,916.269,VALID,0,VALID,100,VALID,-0.0339617,VALID,18.2301,VALID,120,VALID,0.807927,
2008-06-15, 02:37:00,VALID,916.25,VALID,0,VALID,100,VALID,-0.0509425,VALID,18.2268,VALID,124,VALID,0.836509,
2008-06-15, 02:38:00,VALID,916.23,VALID,0,VALID,100,VALID,0.0169808,VALID,18.2326,VALID,120,VALID,1.01767,
2008-06-15, 02:39:00,VALID,916.237,VALID,0,VALID,100,VALID,0.0339617,VALID,18.2317,VALID,128,VALID,1.10316,
2008-06-15, 02:40:00,VALID,916.242,VALID,0,VALID,100,VALID,0.0679233,VALID,18.222,VALID,141,VALID,0.61701,
2008-06-15, 02:41:00,VALID,916.255,VALID,0,VALID,100,VALID,0.0509425,VALID,18.2349,VALID,135,VALID,0.834695,
2008-06-15, 02:42:00,VALID,916.273,VALID,0,VALID,100,VALID,0.0169808,VALID,18.2581,VALID,129,VALID,0.783398,
2008-06-15, 02:43:00,VALID,916.262,VALID,0,VALID,100,VALID,0.0509425,VALID,18.2711,VALID,139,VALID,0.907948,
2008-06-15, 02:44:00,VALID,916.261,VALID,0,VALID,100,VALID,0.0339617,VALID,18.2678,VALID,144,VALID,1.27511,
2008-06-15, 02:45:00,VALID,916.255,VALID,0,VALID,100,VALID,0.0679233,VALID,18.2671,VALID,163,VALID,1.25725,
2008-06-15, 02:46:00,VALID,916.243,VALID,0,VALID,100,VALID,0.0849042,VALID,18.2706,VALID,156,VALID,0.765625,
2008-06-15, 02:47:00,VALID,916.243,VALID,0,VALID,100,VALID,0.0849042,VALID,18.2639,VALID,154,VALID,1.24059,
2008-06-15, 02:48:00,VALID,916.238,VALID,0,VALID,100,VALID,0.0679233,VALID,18.2539,VALID,162,VALID,0.767756,
2008-06-15, 02:49:00,VALID,916.24,VALID,0,VALID,100,VALID,0.0679233,VALID,18.2576,VALID,145,VALID,0.267671,
2008-06-15, 02:50:00,VALID,916.241,VALID,0,VALID,100,VALID,0.0679233,VALID,18.2579,VALID,144,VALID,0.730208,
2008-06-15, 02:51:00,VALID,916.231,VALID,0,VALID,100,VALID,0.0169808,VALID,18.2514,VALID,116,VALID,0.554324,
2008-06-15, 02:52:00,VALID,916.239,VALID,0,VALID,100,VALID,0.0509425,VALID,18.2741,VALID,132,VALID,0.900856,
2008-06-15, 02:53:00,VALID,916.246,VALID,0,VALID,100,VALID,0,VALID,18.2843,VALID,126,VALID,0.865385,
2008-06-15, 02:54:00,VALID,916.268,VALID,0,VALID,100,VALID,-0.0849042,VALID,18.2984,VALID,131,VALID,0.851004,
2008-06-15, 02:55:00,VALID,916.296,VALID,0,VALID,100,VALID,-0.0169808,VALID,18.3047,VALID,132,VALID,1.02397,
2008-06-15, 02:56:00,VALID,916.312,VALID,0,VALID,100,VALID,-0.0339617,VALID,18.2979,VALID,132,VALID,1.00651,
2008-06-15, 02:57:00,VALID,916.328,VALID,0,VALID,100,VALID,-0.0169808,VALID,18.3047,VALID,132,VALID,0.773438,
2008-06-15, 02:58:00,VALID,916.317,VALID,0,VALID,100,VALID,-0.0339617,VALID,18.2982,VALID,135,VALID,0.869234,
2008-06-15, 02:59:00,VALID,916.325,VALID,0,VALID,100,VALID,-0.0679233,VALID,18.3016,VALID,143,VALID,0.813643,
2008-06-15, 03:00:00,VALID,916.311,VALID,0,VALID,100,VALID,-0.0509425,VALID,18.2982,VALID,147,VALID,0.927507,
2008-06-15, 03:01:00,VALID,916.297,VALID,0,VALID,100,VALID,-0.0679233,VALID,18.3146,VALID,139,VALID,0.104833,
2008-06-15, 03:02:00,VALID,916.289,VALID,0,VALID,100,VALID,-0.0679233,VALID,18.3276,VALID,139,VALID,0.00327035,
2008-06-15, 03:03:00,VALID,916.287,VALID,0,VALID,100,VALID,-0.0679233,VALID,18.3176,VALID,135,VALID,0.981957,
2008-06-15, 03:04:00,VALID,916.287,VALID,0,VALID,100,VALID,-0.0679233,VALID,18.3343,VALID,133,VALID,1.01848,
2008-06-15, 03:05:00,VALID,916.287,VALID,0,VALID,100,VALID,-0.0509425,VALID,18.3271,VALID,132,VALID,0.927507,
2008-06-15, 03:06:00,VALID,916.281,VALID,0,VALID,100,VALID,-0.0509425,VALID,18.3239,VALID,131,VALID,0.982422,
2008-06-15, 03:07:00,VALID,916.257,VALID,0,VALID,100,VALID,-0.0509425,VALID,18.3306,VALID,137,VALID,1.13337,
2008-06-15, 03:08:00,VALID,916.247,VALID,0,VALID,100,VALID,-0.0509425,VALID,18.3341,VALID,144,VALID,0.733347,
2008-06-15, 03:09:00,VALID,916.242,VALID,0,VALID,100,VALID,0,VALID,18.3366,VALID,143,VALID,0.888148,
2008-06-15, 03:10:00,VALID,916.251,VALID,0,VALID,100,VALID,0.0339617,VALID,18.3396,VALID,137,VALID,0.861374,
2008-06-15, 03:11:00,VALID,916.264,VALID,0,VALID,100,VALID,0,VALID,18.3327,VALID,133,VALID,0.17133,
2008-06-15, 03:12:00,VALID,916.267,VALID,0,VALID,100,VALID,0.0169808,VALID,18.3262,VALID,141,VALID,0.377046,
2008-06-15, 03:13:00,VALID,916.284,VALID,0,VALID,100,VALID,0.0509425,VALID,18.3294,VALID,132,VALID,0.586496,
2008-06-15, 03:14:00,VALID,916.278,VALID,0,VALID,100,VALID,0,VALID,18.3332,VALID,129,VALID,0.261052,
2008-06-15, 03:15:00,VALID,916.257,VALID,0,VALID,100,VALID,0,VALID,18.3327,VALID,143,VALID,0.568945,
2008-06-15, 03:16:00,VALID,916.243,VALID,0,VALID,100,VALID,0.0509425,VALID,18.3325,VALID,131,VALID,0.266369,
2008-06-15, 03:17:00,VALID,916.224,VALID,0,VALID,100,VALID,0.0509425,VALID,18.3459,VALID,152,VALID,0.736458,
2008-06-15, 03:18:00,VALID,916.224,VALID,0,VALID,100,VALID,0.0339617,VALID,18.3457,VALID,152,VALID,0.584985,
2008-06-15, 03:19:00,VALID,916.24,VALID,0,VALID,100,VALID,0.0339617,VALID,18.3494,VALID,153,VALID,0.914063,
2008-06-15, 03:20:00,VALID,916.254,VALID,0,VALID,100,VALID,0.0339617,VALID,18.3457,VALID,157,VALID,0.691939,
2008-06-15, 03:21:00,VALID,916.286,VALID,0,VALID,100,VALID,0.0169808,VALID,18.3355,VALID,155,VALID,0.980655,
2008-06-15, 03:22:00,VALID,916.3,VALID,0,VALID,100,VALID,0.0509425,VALID,18.3457,VALID,152,VALID,0.518415,
2008-06-15, 03:23:00,VALID,916.285,VALID,0,VALID,100,VALID,-0.0169808,VALID,18.3596,VALID,153,VALID,0.572545,
2008-06-15, 03:24:00,VALID,916.293,VALID,0,VALID,100,VALID,-0.0679233,VALID,18.3501,VALID,149,VALID,0.861285,
2008-06-15, 03:25:00,VALID,916.296,VALID,0,VALID,100,VALID,-0.0679233,VALID,18.3573,VALID,138,VALID,0.859722,
2008-06-15, 03:26:00,VALID,916.285,VALID,0,VALID,100,VALID,-0.0849042,VALID,18.3672,VALID,146,VALID,0.959872,
2008-06-15, 03:27:00,VALID,916.278,VALID,0,VALID,100,VALID,-0.0849042,VALID,18.3698,VALID,138,VALID,0.880766,
2008-06-15, 03:28:00,VALID,916.269,VALID,0,VALID,100,VALID,-0.0509425,VALID,18.3762,VALID,152,VALID,0.200838,
2008-06-15, 03:29:00,VALID,916.272,VALID,0,VALID,100,VALID,0,VALID,18.3895,VALID,142,VALID,0.248001,
2008-06-15, 03:30:00,VALID,916.275,VALID,0,VALID,100,VALID,-0.0509425,VALID,18.3957,VALID,146,VALID,0.656944,
2008-06-15, 03:31:00,VALID,916.278,VALID,0,VALID,100,VALID,-0.0509425,VALID,18.4052,VALID,156,VALID,1.18164,
2008-06-15, 03:32:00,VALID,916.282,VALID,0,VALID,100,VALID,-0.0509425,VALID,18.4281,VALID,140,VALID,1.15216,
2008-06-15, 03:33:00,VALID,916.278,VALID,0,VALID,100,VALID,-0.0339617,VALID,18.4413,VALID,137,VALID,1.05387,
2008-06-15, 03:34:00,VALID,916.271,VALID,0,VALID,100,VALID,-0.0509425,VALID,18.4249,VALID,125,VALID,0.179142,
2008-06-15, 03:35:00,VALID,916.262,VALID,0,VALID,100,VALID,-0.0849042,VALID,18.4314,VALID,133,VALID,1.06343,
2008-06-15, 03:36:00,VALID,916.26,VALID,0,VALID,100,VALID,-0.0339617,VALID,18.4217,VALID,128,VALID,0.928571,
2008-06-15, 03:37:00,VALID,916.249,VALID,0,VALID,100,VALID,-0.0339617,VALID,18.4119,VALID,118,VALID,0.64897,
2008-06-15, 03:38:00,VALID,916.24,VALID,0,VALID,100,VALID,-0.0169808,VALID,18.3825,VALID,119,VALID,0.0567336,